Showing default

DRAGRACER 2(AUGURY), 46955

Orbit data source: Space-Track

DRAGRACER 2(AUGURY), 46955 is a payload satellite owned by TriSept (US) in SSO that was launched on Fri, 20 Nov 2020 UTC via an ELECTRON launch vehicle from the Rocket Lab Launch Complex (RLLC). Payload-class satellites include a variety of spacecraft equipped with specific instruments for various scientific and technological missions. These include communications satellites like Starlink; space stations such as the ISS; scientific satellites like the Hubble; Earth observation satellites from companies like Planet Labs, Umbra, and HawkEye 360; GPS; miniature CubeSats for education and research; and military/defense satellites.

Loading next visibility...
Identifier
46955, 2020-085AC
Orbit
SSO
Country
Flag of USUS
Related business
Manufacturer
Millenium ES
Mission
Operational Commercial Technology
Bus & Motor
CUBESAT 6U, Unknown motor
Mass
12 kg wet, 12 kg dry
Launch date (UTC)
2020-11-20 (5 years ago)
Launch vehicle
ELECTRON
Launch site
Rocket Lab Launch Complex (RLLC)
Object type
Payload
Rocket body
Debris
Shape & HBR
Box, Unknown HBR
Radar Cross Section
0.080 m², Medium (>0.1 m² and < 1m²)

Expand to show TLE details & history
Last TLE update: 9 hours ago

TLE from 9 hours ago
0 DRAGRACER 2(AUGURY)
1 46955U 20085AC  25352.95920733  .00021741  00000-0  28283-3 0  9990
2 46955  97.5804 170.5610 0005411 206.2619 153.8363 15.58780295283687
Epoch: 2025-12-18T23:01Z
TLE epoch observation values (Epoch: 2025-12-18T23:01:15.513Z)
Latitude
-0.00001°
Longitude
97.43913°
Altitude
397.612 km
Speed
7.67 km/s
True Right ascension
11h 22m 14s
True Declination
0° 00' 00"
Sunlit
Object was in daylight at epoch
Visualization orbit readout
Latitude
Unknown
Longitude
Unknown
Altitude
Unknown
Speed
Unknown
Apparent Right ascension
Unknown
Apparent Declination
Unknown
Sunlit
N/A
Visualization observer readout
Local Sidereal Time
06:45:45
Azimuth
Unknown
Elevation
Unknown
Doppler factor
Unknown
Orbital elements
Apogee altitude
391.769 km
Perigee altitude
384.447 km
Semi-major axis
6,766.245 km
Eccentricity
0.00054
Inclination
97.5804°
RAAN
170.561°
Arg. of periapsis
206.2619°
True anomaly
153.86362°
Mean anomaly
153.8363°
Eccentric anomaly
153.84996°
Mean motion
3.89961 °/min
Orbital period
92.32 mins
BSTAR
0.00028283
Loading maneuver chart data...
Computing Atmospheric mass density...

Documentation

Showing up to 5 results
|